Location: *
(49.1466°N, 1.6216°E)
Time: 01:41:26
(UTC+00:00)

Okean 1-7 - Pass Details

Date: 25 September 2023
Orbit: 582 x 609 km, 82.5° (Epoch: 01 December)

Event Time Altitude Azimuth Distance (km) Brightness Sun altitude
Rises 18:05:16 0° 359° (N) 2,860 6.5 -4.0°
Reaches altitude 10° 18:07:46 10° 11° (NNE) 1,958 5.6 -4.4°
Maximum altitude 18:11:28 27° 70° (ENE) 1,173 4.0 -5.0°
Drops below altitude 10° 18:15:11 10° 129° (SE) 1,959 5.1 -5.6°
Sets 18:17:40 0° 142° (SE) 2,862 6.1 -6.0°
